Weather History for EGUN - November, 2012

Change the Weather History Date:

Friday, November 9, 2012

  Actual Average (EGSC) Record (EGSC)
Temperature  
Mean Temperature 48 °F -  
Max Temperature 52 °F 50 °F 59 °F (1998)
Min Temperature 44 °F 41 °F 33 °F (2001)
Degree Days  
Heating Degree Days 17    
Moisture  
Dew Point 46 °F    
Average Humidity 88    
Maximum Humidity 100    
Minimum Humidity 71    
Precipitation  
Precipitation 0.00 in - - ()
Sea Level Pressure  
Sea Level Pressure 29.75 in    
Wind  
Wind Speed 9 mph ()    
Max Wind Speed 17 mph    
Max Gust Speed 21 mph    
Visibility 6.2 miles    
Events Rain    
Averages and records for this station are not official NWS values.
T = Trace of Precipitation, MM = Missing Value Source: Averaged Metar Reports

Daily Weather History Graph

Daily Weather History Graph

Search for Another Location

Airport or City:

Trip Planner

Search our weather history database for the weather conditions in past years. The results will help you decide how hot, cold, wet, or windy it might be!

Date:

Astronomy

Nov. 09, 2012 Rise Set
Actual Time 7:09 AM GMT 4:14 PM GMT
Civil Twilight 6:32 AM GMT 4:51 PM GMT
Nautical Twilight 5:51 AM GMT 5:32 PM GMT
Astronomical Twilight 5:11 AM GMT 6:11 PM GMT
Moon 1:14 AM GMT (11/9) 1:51 PM GMT (11/9)
Length of Visible Light 10h 19m
Length of Day
9h 04m
Waning Crescent, 25% of the Moon is Illuminated
Nov 9
Waning Crescent
Nov 13
New
Nov 20
First Quarter
Nov 28
Full
Dec 6
Last Quarter

Hourly Weather History & Observations

Time (GMT) Temp. Windchill Dew Point Humidity Pressure Visibility Wind Dir Wind Speed Gust Speed Precip Events Conditions
12:58 AM 47.8 °F - 45.3 °F 91% 29.99 in 6.2 mi SW 6.9 mph - N/A   Overcast
1:58 AM 48.0 °F - 43.7 °F 85% 29.98 in 6.2 mi SW 10.4 mph - N/A   Overcast
2:58 AM 47.1 °F - 43.5 °F 87% 29.95 in 6.2 mi SSW 8.1 mph - N/A   Overcast
3:58 AM 47.5 °F - 43.2 °F 85% 29.94 in 6.2 mi SSW 8.1 mph - N/A   Overcast
4:58 AM 47.7 °F - 42.1 °F 81% 29.93 in 6.2 mi SW 10.4 mph - N/A   Overcast
5:58 AM 46.4 °F 42.4 °F 41.9 °F 84% 29.92 in 6.2 mi SSW 8.1 mph - N/A   Overcast
6:58 AM 46.0 °F 41.4 °F 42.4 °F 87% 29.90 in 6.2 mi South 9.2 mph - N/A   Overcast
7:30 AM 44.6 °F 40.2 °F 42.8 °F 93% 29.88 in 6.2 mi South 8.1 mph - N/A   Scattered Clouds
7:58 AM 44.6 °F 40.2 °F 42.6 °F 93% 29.89 in 6.2 mi South 8.1 mph - N/A   Partly Cloudy
8:14 AM 46.4 °F 42.4 °F 42.8 °F 87% 29.88 in 6.2 mi South 8.1 mph - N/A   Mostly Cloudy
8:58 AM 47.7 °F - 43.7 °F 86% 29.88 in 6.2 mi SSW 10.4 mph - N/A   Overcast
9:58 AM 49.3 °F - 43.7 °F 81% 29.86 in 6.2 mi SSW 9.2 mph - N/A   Overcast
10:58 AM 51.4 °F - 44.8 °F 78% 29.84 in 6.2 mi SSW 12.7 mph - N/A   Overcast
11:58 AM 52.7 °F - 43.7 °F 71% 29.80 in 6.2 mi SW 16.1 mph - N/A   Overcast
12:58 PM 52.7 °F - 44.1 °F 72% 29.77 in 6.2 mi SW 17.3 mph 20.7 mph N/A   Overcast
1:18 PM 51.8 °F - 44.6 °F 76% 29.75 in 6.2 mi SW 15.0 mph - N/A   Overcast
1:56 PM 51.8 °F - 44.6 °F 76% 29.73 in 6.2 mi SSW 10.4 mph - N/A   Overcast
1:58 PM 52.5 °F - 45.7 °F 78% 29.74 in 6.2 mi SSW 10.4 mph - N/A   Overcast
2:05 PM 51.8 °F - 46.4 °F 82% 29.73 in 6.2 mi SSW 9.2 mph - N/A   Overcast
2:16 PM 51.8 °F - 46.4 °F 82% 29.72 in 6.2 mi SSW 13.8 mph 18.4 mph N/A   Overcast
2:18 PM 51.8 °F - 46.4 °F 82% 29.72 in 6.2 mi SSW 13.8 mph 18.4 mph N/A   Overcast
2:32 PM 51.8 °F - 46.4 °F 82% 29.72 in 6.2 mi SSW 9.2 mph - N/A   Overcast
2:55 PM 51.8 °F - 48.2 °F 88% 29.71 in 6.2 mi SSW 10.4 mph - N/A   Overcast
2:58 PM 51.4 °F - 47.3 °F 86% 29.72 in 6.2 mi SSW 11.5 mph - N/A   Overcast
2:59 PM 51.8 °F - 48.2 °F 88% 29.71 in 6.2 mi SSW 10.4 mph - N/A   Overcast
3:00 PM 51.8 °F - 48.2 °F 88% 29.71 in 6.2 mi SSW 8.1 mph - N/A Rain Light Rain
3:01 PM 51.8 °F - 48.2 °F 88% 29.71 in 6.2 mi SSW 8.1 mph - N/A Rain Light Rain
3:02 PM 51.8 °F - 48.2 °F 88% 29.71 in 6.2 mi SSW 9.2 mph - N/A Rain Light Rain
3:04 PM 50.0 °F - 48.2 °F 94% 29.71 in 6.2 mi SSW 10.4 mph - N/A Rain Light Rain
3:05 PM 50.0 °F - 48.2 °F 94% 29.71 in 6.2 mi SSW 10.4 mph - N/A Rain Light Rain
3:10 PM 50.0 °F - 48.2 °F 94% 29.71 in 6.2 mi SSW 10.4 mph - N/A   Overcast
3:12 PM 50.0 °F - 48.2 °F 94% 29.71 in 6.2 mi SSW 10.4 mph - N/A   Overcast
3:16 PM 50.0 °F - 48.2 °F 94% 29.71 in 6.2 mi SSW 11.5 mph - N/A   Overcast
3:17 PM 50.0 °F - 48.2 °F 94% 29.71 in 6.2 mi SSW 11.5 mph - N/A   Overcast
3:18 PM 50.0 °F - 48.2 °F 94% 29.71 in 6.2 mi SSW 12.7 mph - N/A   Overcast
3:20 PM 50.0 °F - 48.2 °F 94% 29.71 in 6.2 mi SSW 13.8 mph - N/A   Overcast
3:29 PM 50.0 °F - 48.2 °F 94% 29.71 in 6.2 mi SSW 11.5 mph - N/A   Overcast
3:58 PM 50.5 °F - 48.6 °F 93% 29.71 in 6.2 mi South 10.4 mph - N/A   Overcast
4:58 PM 50.5 °F - 48.2 °F 92% 29.69 in 6.2 mi South 8.1 mph - N/A   Overcast
5:58 PM 50.5 °F - 46.6 °F 86% 29.66 in 6.2 mi South 10.4 mph - N/A   Overcast
6:58 PM 48.7 °F - 45.1 °F 87% 29.64 in 6.2 mi SSE 8.1 mph - N/A   Overcast
7:58 PM 47.3 °F - 45.5 °F 93% 29.63 in 6.2 mi South 10.4 mph - N/A   Overcast
8:26 PM 46.4 °F 40.7 °F 44.6 °F 93% 29.60 in 6.2 mi South 12.7 mph - N/A   Scattered Clouds
8:58 PM 46.2 °F 41.2 °F 45.1 °F 96% 29.61 in 6.2 mi South 10.4 mph - N/A   Clear
9:08 PM 46.4 °F 41.5 °F 44.6 °F 93% 29.60 in 6.2 mi South 10.4 mph - N/A   Mostly Cloudy
9:58 PM 46.6 °F - 46.0 °F 98% 29.59 in 6.2 mi South 10.4 mph - N/A   Overcast
10:58 PM 46.8 °F - 45.9 °F 97% 29.56 in 6.2 mi South 10.4 mph - N/A   Overcast
11:29 PM 46.4 °F 41.5 °F 46.4 °F 100% 29.55 in 6.2 mi South 10.4 mph - N/A   Overcast
11:58 PM 46.6 °F - 46.0 °F 98% 29.54 in 6.2 mi South 8.1 mph - N/A   Overcast